Tracking 29892 objects as of 21-Nov-2024
HD Live streaming from Space Station
objects crossing your sky now

PSLV R/B

Track PSLV R/B now!
10-day predictions
PSLV R/B is classified as:


NORAD ID: 41470
Int'l Code: 2016-027B
Perigee: 278.3 km
Apogee: 19,703.9 km
Inclination: 17.9 °
Period: 347.2 minutes
Semi major axis: 16362 km
RCS: Unknown
Launch date: April 28, 2016
Source: India (IND)
Launch site: SRIHARIKOTA (SRI)

Note: This is a ROCKET BODY
Your satellite tracking list
Your tracking list is empty




NASA's NSSDC Master Catalog

Two Line Element Set (TLE):
1 41470U 16027B   24325.88871759  .00010582  00000-0  16909-2 0  9994
2 41470  17.8656 294.3842 5936146 135.6417 291.1380  4.14804673125564
Source of the keplerian elements: AFSPC